Wind_Speed
18 20 20 21 21 20 20 20 19 19 19 19 18 18 18 18 17 17 17 17 17 17 18 18 18 19 21 22 25 27 28 29 29 28 27 25 23 22 21 20 20 20 20
19 20 21 22 22 21 21 20 20 21 20 20 19 18 18 18 17 17 17 17 16 17 17 16 17 18 20 21 23 27 29 30 30 30 30 29 27 25 23 22 22 21 21
20 21 22 23 22 21 21 21 21 21 21 20 19 18 18 18 18 18 18 18 18 18 17 17 17 17 18 19 21 24 27 29 31 32 33 32 31 29 27 25 24 24 23
22 22 23 23 22 20 19 20 20 20 20 19 19 19 19 19 19 19 19 19 19 19 18 18 18 18 19 19 19 21 25 28 30 32 34 34 34 33 31 29 28 27 26
22 22 23 22 21 19 18 19 19 19 19 19 18 18 18 19 19 19 19 19 20 20 20 19 19 18 19 20 20 21 23 26 28 31 33 34 34 34 34 34 32 30 28
22 22 20 20 18 17 17 18 18 19 19 19 19 19 19 19 20 20 20 21 21 21 21 20 20 20 20 20 21 21 22 24 25 28 31 33 34 34 35 36 35 32 31
19 19 18 18 17 16 17 19 19 20 20 19 19 19 19 19 19 20 20 21 21 21 22 22 22 21 20 20 21 21 21 22 24 25 27 30 32 34 35 35 35 34 34
16 17 18 18 18 18 19 19 20 20 20 20 19 19 19 19 19 19 20 21 21 21 21 21 22 22 21 21 21 21 21 22 24 26 27 27 29 32 34 35 36 35 35
16 17 18 18 19 19 19 19 20 20 20 20 19 19 19 19 19 20 20 20 21 21 21 21 22 22 22 22 22 22 22 22 22 23 25 27 27 29 31 33 34 34 34
17 18 19 19 19 20 19 19 19 19 20 20 20 20 20 20 20 20 21 21 22 22 22 22 23 23 23 23 23 22 22 22 22 22 24 25 26 27 29 30 32 33 34
18 18 19 19 19 19 19 19 19 19 19 19 19 20 20 20 20 21 22 22 22 22 23 23 23 24 24 24 23 23 23 23 23 23 24 25 25 27 28 30 31 32 33
18 19 19 18 18 18 18 18 18 18 19 19 19 19 20 20 22 22 22 23 23 23 23 23 24 24 23 23 23 24 24 24 24 24 25 26 26 27 28 30 31 32 33
18 18 18 17 17 17 17 17 17 18 18 19 19 19 19 20 21 21 21 21 22 23 23 23 22 23 23 23 22 23 23 24 24 25 25 26 27 28 28 29 30 31 32
17 16 16 16 16 16 16 17 17 17 17 18 18 18 18 19 19 19 20 20 21 22 23 23 22 22 22 22 22 22 22 23 23 24 24 25 26 27 28 28 29 30 31
16 15 15 14 14 15 15 15 15 16 16 16 16 16 16 16 15 15 16 16 18 19 20 21 21 21 21 21 21 21 21 22 22 23 23 24 25 26 27 27 27 29 30
15 14 14 13 13 13 13 13 14 14 14 14 13 14 13 12 11 10 10 10 12 14 15 16 17 18 18 19 20 20 20 21 22 22 23 24 25 26 27 28 28 29 30
15 14 13 13 13 12 12 12 12 12 12 11 11 11 11 10 8 6 5 5 6 7 9 10 12 14 15 16 18 19 20 20 21 22 23 24 25 26 27 28 30 30 31
15 15 14 14 13 12 12 11 11 11 10 10 11 11 10 9 8 6 5 3 2 2 3 4 6 9 11 12 14 16 17 19 20 21 23 24 26 27 28 29 30 31 32
16 16 15 15 14 13 13 12 12 12 11 11 11 11 10 9 9 8 7 6 4 3 2 2 3 5 7 9 11 13 15 17 19 20 22 23 25 26 28 29 31 32 33
17 17 16 16 15 15 15 15 14 14 14 13 13 12 12 11 10 10 9 8 7 6 5 4 4 4 5 6 8 10 12 14 15 17 19 22 23 25 27 29 30 32 33
17 17 17 17 17 17 17 17 17 16 16 15 15 14 14 13 13 12 11 11 9 8 8 7 6 5 5 6 7 8 10 11 13 15 18 20 22 24 26 27 29 30 32
17 17 17 17 17 17 17 17 18 18 17 17 17 16 16 15 15 14 14 13 13 12 11 10 9 8 8 8 8 9 10 11 12 14 16 18 20 22 24 25 27 28 30
16 16 16 16 16 16 17 17 18 18 18 18 18 17 17 17 17 16 16 15 15 14 14 14 13 13 12 11 11 12 12 13 13 14 16 17 18 19 21 22 24 26 27
15 15 15 15 15 15 15 16 17 17 17 17 18 18 17 17 17 17 17 17 16 16 16 16 16 16 15 15 15 15 15 15 16 16 17 18 19 19 20 21 22 23 24
13 13 13 13 13 14 14 15 15 16 16 16 17 17 17 17 17 17 17 17 17 17 17 17 17 18 18 18 18 18 18 18 18 18 19 20 20 20 20 20 20 20 21
10 11 11 12 12 12 13 13 13 14 14 15 15 15 15 16 16 16 17 17 17 17 18 18 18 18 19 19 20 20 20 20 20 20 21 22 22 21 21 21 21 21 20
Wind_Direction
270 275 279 282 282 280 281 282 284 283 282 279 276 272 270 268 267 265 262 260 256 252 251 249 248 247 245 242 237 233 230 228 227 227 228 229 231 233 235 235 236 236 236
272 277 282 285 285 283 282 283 285 283 281 279 277 273 269 267 265 263 260 258 255 254 253 253 253 251 245 243 240 234 231 229 228 229 228 229 231 234 237 238 237 238 238
274 278 283 284 282 281 281 283 285 284 282 279 276 273 270 267 264 262 260 258 256 255 255 255 254 252 246 245 244 236 233 231 231 232 229 230 232 236 238 239 240 241 240
277 278 281 282 276 276 279 284 286 286 284 281 278 275 272 268 264 261 260 258 257 257 256 256 256 254 249 247 247 244 238 235 235 234 229 230 233 236 237 239 242 243 243
278 279 280 280 279 278 283 287 288 288 288 285 282 279 275 270 266 263 261 258 256 256 256 256 256 253 249 246 248 249 245 241 239 233 231 232 233 235 237 239 241 243 244
278 281 286 292 289 290 296 294 294 293 290 287 285 282 279 274 269 266 263 260 257 255 254 254 254 254 252 250 249 250 249 245 242 237 236 236 237 236 236 239 241 243 244
284 291 297 301 300 299 300 298 296 294 291 288 285 282 280 276 271 266 263 261 258 255 253 252 252 252 252 251 249 248 248 245 242 240 239 239 237 236 238 240 241 243 244
291 294 297 299 301 301 300 299 296 295 294 291 287 282 279 275 271 267 264 260 256 253 253 252 252 252 251 251 250 249 248 246 244 243 242 241 240 240 241 241 243 243 245
297 298 299 301 302 301 300 299 297 296 296 294 291 286 281 275 271 267 263 259 256 254 253 253 253 253 253 252 251 250 249 247 246 245 243 243 244 244 243 243 244 244 244
303 303 302 302 303 302 301 301 300 299 298 296 292 288 284 278 273 268 264 260 256 255 254 253 252 253 253 253 253 253 252 251 249 247 245 244 244 243 241 241 243 245 245
306 305 305 304 304 303 302 302 301 300 299 297 293 289 286 281 278 272 266 260 257 255 254 252 251 252 252 252 252 252 253 252 251 249 247 247 245 244 243 243 245 247 247
308 307 306 305 304 303 303 303 301 301 301 299 296 292 288 284 280 275 270 263 258 255 254 253 252 252 252 252 252 252 251 252 252 251 250 249 248 248 247 247 248 249 250
312 310 308 307 307 306 305 305 303 303 303 303 300 296 292 288 283 276 270 264 259 256 253 253 253 251 251 252 252 251 250 250 251 251 250 250 249 249 249 250 250 251 252
319 314 311 310 310 310 309 308 307 307 308 307 304 301 299 294 287 279 272 262 257 254 251 251 249 249 250 251 251 251 251 251 251 251 251 251 250 251 252 254 256 255 254
326 322 320 318 317 317 316 315 314 315 314 313 311 310 306 303 295 284 275 265 256 252 251 249 249 249 250 250 252 252 252 253 253 252 252 253 253 253 255 256 256 256 257
339 335 333 331 330 328 326 325 324 324 325 325 324 323 321 317 311 297 278 267 258 253 251 250 248 248 249 250 251 252 253 255 256 255 256 257 257 258 258 258 259 260 260
355 354 352 350 347 345 343 341 340 340 340 342 343 343 344 345 343 334 314 286 266 253 252 250 248 248 250 251 251 253 256 258 259 259 260 261 262 263 264 264 265 264 264
10 10 8 7 6 6 5 4 3 2 2 2 4 6 8 13 18 22 21 9 339 276 255 256 254 254 254 255 257 260 261 261 262 263 263 264 266 267 268 269 268 268 267
21 22 22 23 24 25 24 24 23 22 22 21 21 24 27 32 36 40 43 44 44 45 29 326 284 273 269 269 268 269 269 269 269 269 269 270 271 271 272 272 272 271 270
30 31 32 34 36 38 38 38 37 36 37 37 37 38 40 43 46 47 47 47 47 45 35 20 357 326 305 296 289 285 282 280 278 278 278 278 278 278 278 277 276 275 274
34 36 38 40 42 43 43 43 43 43 43 45 46 47 49 50 52 52 51 50 48 45 41 35 25 9 350 333 319 310 304 299 294 291 288 287 286 285 284 283 281 279 278
36 38 39 41 43 44 45 46 46 46 48 50 51 52 53 54 55 55 54 54 53 50 47 42 35 27 15 4 353 340 330 321 314 308 304 301 298 296 293 290 287 285 283
35 36 38 40 42 44 46 47 49 50 51 52 53 54 54 55 54 54 53 52 51 50 47 44 39 34 28 21 12 3 354 346 338 330 325 321 316 311 306 301 297 294 290
33 33 35 38 40 43 45 47 48 49 50 50 51 52 53 53 52 52 51 49 49 47 44 41 38 35 32 27 20 13 7 1 356 351 345 340 335 328 322 316 312 307 302
30 31 33 36 39 41 43 44 46 47 48 48 48 49 50 50 49 49 48 47 46 45 43 40 37 34 30 27 23 18 13 10 7 4 0 357 353 350 345 340 334 328 320
27 29 32 34 36 37 37 38 40 41 42 43 43 44 43 43 44 43 42 41 41 41 39 37 34 31 29 27 25 22 21 18 15 11 8 6 5 4 1 358 355 350 345
Height
5803 5802 5802 5801 5800 5800 5798 5797 5796 5794 5792 5791 5790 5789 5787 5787 5786 5785 5785 5785 5785 5786 5787 5788 5789 5790 5792 5793 5796 5799 5802 5806 5809 5812 5815 5818 5820 5822 5824 5826 5828 5830 5831
5797 5796 5796 5795 5794 5793 5792 5790 5789 5788 5786 5785 5784 5783 5782 5781 5781 5781 5781 5781 5781 5782 5782 5783 5784 5785 5786 5787 5789 5792 5795 5798 5802 5805 5808 5812 5814 5817 5819 5821 5823 5825 5827
5791 5790 5789 5788 5787 5786 5785 5784 5783 5782 5780 5779 5778 5777 5776 5776 5776 5775 5776 5776 5776 5777 5777 5778 5779 5779 5780 5782 5783 5785 5788 5791 5795 5798 5801 5805 5808 5811 5813 5815 5817 5819 5821
5784 5783 5782 5781 5779 5779 5778 5778 5777 5776 5774 5773 5772 5771 5770 5770 5770 5770 5770 5770 5771 5771 5772 5773 5774 5775 5775 5777 5778 5779 5782 5784 5787 5790 5794 5797 5801 5804 5807 5809 5811 5813 5816
5778 5777 5775 5774 5773 5773 5772 5771 5770 5770 5769 5767 5766 5765 5764 5764 5764 5764 5764 5765 5765 5766 5767 5767 5768 5769 5770 5772 5773 5774 5775 5777 5780 5783 5786 5789 5793 5796 5799 5802 5804 5806 5809
5773 5770 5769 5768 5767 5767 5766 5765 5764 5763 5763 5762 5761 5760 5759 5758 5758 5758 5758 5759 5759 5760 5761 5762 5763 5764 5765 5766 5767 5769 5770 5772 5773 5776 5778 5781 5785 5788 5791 5794 5796 5800 5802
5768 5766 5765 5763 5763 5762 5761 5760 5758 5757 5756 5755 5755 5754 5753 5752 5752 5752 5752 5753 5753 5754 5755 5756 5757 5758 5759 5760 5761 5763 5764 5765 5767 5769 5771 5774 5776 5780 5783 5786 5789 5791 5793
5765 5764 5762 5760 5759 5757 5756 5754 5753 5751 5750 5749 5748 5747 5747 5746 5746 5746 5746 5746 5747 5747 5748 5749 5750 5751 5753 5754 5755 5756 5758 5759 5761 5763 5765 5767 5769 5771 5774 5777 5780 5783 5785
5762 5760 5758 5756 5754 5753 5751 5749 5747 5745 5744 5742 5741 5740 5740 5739 5739 5739 5739 5740 5740 5741 5742 5743 5744 5745 5746 5747 5749 5750 5751 5753 5754 5756 5758 5760 5761 5763 5766 5768 5771 5774 5776
5758 5756 5754 5752 5750 5748 5746 5743 5741 5740 5738 5736 5735 5734 5733 5732 5732 5732 5732 5733 5734 5734 5735 5737 5738 5738 5740 5741 5742 5743 5745 5746 5748 5749 5751 5752 5754 5756 5758 5760 5762 5764 5767
5755 5752 5750 5748 5745 5743 5741 5738 5736 5734 5732 5731 5729 5727 5726 5725 5725 5725 5725 5725 5726 5727 5729 5730 5731 5732 5733 5735 5736 5737 5738 5740 5741 5743 5744 5746 5747 5749 5750 5752 5754 5756 5758
5751 5748 5746 5743 5741 5738 5736 5734 5731 5729 5727 5725 5723 5721 5720 5718 5717 5717 5717 5718 5719 5720 5721 5723 5724 5725 5727 5728 5729 5731 5732 5733 5735 5736 5737 5739 5740 5741 5743 5744 5746 5747 5749
5747 5744 5741 5739 5736 5734 5731 5729 5727 5724 5722 5720 5717 5715 5713 5712 5710 5709 5709 5710 5711 5712 5714 5715 5717 5719 5720 5722 5723 5724 5725 5727 5728 5729 5730 5732 5733 5734 5735 5736 5738 5739 5740
5743 5740 5738 5735 5732 5730 5727 5725 5722 5720 5717 5715 5712 5710 5707 5705 5703 5702 5702 5702 5703 5705 5706 5708 5710 5712 5714 5715 5717 5718 5719 5720 5721 5722 5723 5724 5726 5727 5728 5728 5729 5730 5731
5740 5737 5734 5731 5729 5726 5723 5721 5718 5716 5713 5710 5708 5705 5702 5700 5698 5696 5695 5695 5696 5698 5700 5702 5704 5706 5708 5709 5711 5712 5713 5714 5715 5716 5717 5718 5719 5719 5720 5721 5721 5721 5722
5738 5734 5731 5728 5726 5723 5720 5718 5715 5713 5710 5707 5704 5702 5699 5696 5694 5692 5691 5691 5692 5693 5695 5696 5698 5700 5702 5703 5705 5706 5707 5708 5709 5710 5711 5711 5712 5712 5713 5713 5713 5713 5713
5736 5733 5729 5726 5724 5721 5718 5716 5713 5711 5708 5705 5703 5700 5697 5694 5692 5691 5690 5689 5689 5690 5692 5693 5694 5696 5697 5698 5699 5701 5702 5703 5703 5704 5704 5705 5705 5705 5705 5705 5705 5705 5705
5736 5732 5729 5726 5723 5720 5717 5715 5712 5710 5707 5705 5702 5700 5697 5695 5693 5692 5691 5690 5690 5690 5691 5692 5692 5693 5694 5695 5695 5696 5697 5697 5698 5698 5698 5698 5698 5698 5698 5697 5697 5696 5696
5737 5733 5730 5727 5724 5721 5718 5716 5713 5711 5708 5706 5703 5701 5699 5697 5695 5694 5693 5692 5692 5692 5692 5692 5692 5692 5692 5692 5693 5693 5693 5693 5693 5693 5692 5692 5691 5691 5690 5689 5688 5687 5686
5739 5735 5732 5729 5726 5723 5721 5718 5716 5713 5710 5708 5706 5703 5701 5699 5698 5697 5696 5695 5694 5693 5693 5692 5692 5692 5691 5691 5691 5690 5690 5689 5688 5687 5687 5686 5684 5683 5682 5680 5679 5677 5676
5741 5738 5735 5732 5729 5727 5724 5722 5719 5716 5714 5711 5709 5707 5705 5703 5701 5700 5699 5697 5696 5695 5695 5694 5693 5692 5692 5691 5690 5688 5687 5686 5685 5683 5682 5680 5678 5676 5673 5671 5669 5667 5665
5744 5741 5739 5736 5733 5731 5728 5725 5723 5720 5718 5715 5713 5711 5709 5707 5705 5704 5702 5701 5700 5698 5697 5696 5695 5693 5692 5690 5689 5687 5685 5684 5681 5679 5677 5674 5672 5669 5666 5663 5660 5657 5655
5747 5745 5742 5740 5737 5735 5732 5730 5727 5725 5722 5720 5718 5715 5713 5712 5710 5708 5706 5705 5703 5702 5700 5698 5697 5695 5693 5691 5689 5686 5684 5681 5679 5676 5673 5670 5666 5663 5659 5656 5652 5648 5645
5750 5748 5745 5743 5741 5739 5736 5734 5731 5729 5727 5725 5722 5720 5718 5716 5714 5712 5710 5709 5707 5705 5703 5701 5699 5697 5694 5692 5689 5686 5683 5680 5677 5673 5670 5666 5662 5657 5653 5649 5645 5640 5636
5753 5750 5748 5746 5744 5742 5740 5738 5736 5733 5731 5729 5727 5725 5723 5721 5719 5717 5715 5712 5710 5708 5706 5704 5701 5699 5696 5693 5690 5686 5683 5679 5676 5672 5668 5663 5659 5654 5649 5644 5639 5634 5629
5754 5753 5751 5749 5747 5745 5743 5741 5739 5737 5735 5733 5731 5728 5726 5724 5722 5720 5718 5716 5714 5711 5709 5706 5703 5701 5698 5694 5691 5687 5684 5680 5676 5672 5667 5662 5657 5652 5647 5641 5636 5630 5625